Weather History for Canton, GA

Change the Weather History Date:

Sunday, December 29, 2013

  Actual Average (KGVL) Record (KGVL)
Temperature  
Mean Temperature 44 °F 42 °F  
Max Temperature 46 °F 50 °F 72 °F (1984)
Min Temperature 41 °F 33 °F 17 °F (1961)
Degree Days  
Heating Degree Days 22 23  
Month to date heating degree days 613  
Since 1 July heating degree days 1148  
Moisture  
Dew Point 40 °F    
Average Humidity 86    
Maximum Humidity 93    
Minimum Humidity 76    
Precipitation  
Precipitation 0.00 in 0.09 in 1.84 in (1935)
Month to date precipitation 4.32  
Snow  
Snow 0.00 in - - ()
Month to date snowfall  
Since 1 July snowfall  
Snow Depth -    
Sea Level Pressure  
Sea Level Pressure 29.95 in    
Wind  
Wind Speed 6 mph (NW)    
Max Wind Speed 13 mph    
Max Gust Speed 22 mph    
Visibility 7 miles    
Events Fog , Rain    
T = Trace of Precipitation, MM = Missing Value Source: NWS Daily Summary

Daily Weather History Graph

Daily Weather History Graph

Search for Another Location

Airport:

Trip Planner

Search our weather history database for the weather conditions in past years. The results will help you decide how hot, cold, wet, or windy it might be!

Date:

Astronomy

Dec. 29, 2013 Rise Set
Actual Time 7:43 AM EST 5:36 PM EST
Civil Twilight 7:15 AM EST 6:04 PM EST
Nautical Twilight 6:44 AM EST 6:35 PM EST
Astronomical Twilight 6:13 AM EST 7:06 PM EST
Moon 4:29 AM EST (12/29) 3:11 PM EST (12/29)
Length of Visible Light 10h 49m
Length of Day
9h 53m
Waning Crescent, 11% of the Moon is Illuminated
Dec 29
Waning Crescent
Jan 1
New
Jan 7
First Quarter
Jan 15
Full
Jan 24
Last Quarter

Hourly Weather History & Observations

Time (EST) Temp. Windchill Dew Point Humidity Pressure Visibility Wind Dir Wind Speed Gust Speed Precip Events Conditions
12:15 AM 41.0 °F 35.8 °F 35.6 °F 81% 29.99 in 4.0 mi East 8.1 mph 18.4 mph N/A   Drizzle
12:35 AM 41.0 °F 33.9 °F 37.4 °F 87% 29.97 in 4.0 mi East 12.7 mph 19.6 mph N/A Rain Rain
12:55 AM 41.0 °F 35.2 °F 37.4 °F 87% 29.97 in 5.0 mi East 9.2 mph 18.4 mph N/A Rain Rain
1:15 AM 41.0 °F 35.2 °F 37.4 °F 87% 29.94 in 7.0 mi ENE 9.2 mph 17.3 mph N/A   Overcast
1:35 AM 41.0 °F 34.3 °F 37.4 °F 87% 29.92 in 10.0 mi East 11.5 mph 17.3 mph N/A   Overcast
1:55 AM 41.0 °F 34.7 °F 37.4 °F 87% 29.92 in 5.0 mi East 10.4 mph 20.7 mph N/A Rain Light Rain
2:15 AM 41.0 °F 34.3 °F 37.4 °F 87% 29.92 in 5.0 mi East 11.5 mph 17.3 mph N/A   Overcast
2:35 AM 41.0 °F 35.8 °F 37.4 °F 87% 29.90 in 7.0 mi ENE 8.1 mph 19.6 mph N/A   Overcast
2:55 AM 41.0 °F 34.7 °F 37.4 °F 87% 29.89 in 7.0 mi East 10.4 mph - N/A   Overcast
3:15 AM 41.0 °F 35.2 °F 37.4 °F 87% 29.87 in 3.0 mi ENE 9.2 mph 17.3 mph N/A   Overcast
3:35 AM 41.0 °F 36.4 °F 37.4 °F 87% 29.88 in 4.0 mi East 6.9 mph - N/A   Overcast
3:55 AM 41.0 °F 36.4 °F 39.2 °F 93% 29.87 in 10.0 mi ENE 6.9 mph - N/A   Drizzle
4:15 AM 42.8 °F - 39.2 °F 87% 29.88 in 4.0 mi Calm Calm - N/A Rain Heavy Rain
4:35 AM 42.8 °F - 39.2 °F 87% 29.89 in 2.0 mi Calm Calm - N/A Rain Heavy Rain
4:55 AM 42.8 °F - 39.2 °F 87% 29.90 in 1.0 mi Calm Calm - N/A   Heavy Drizzle
5:15 AM 42.8 °F - 39.2 °F 87% 29.91 in 2.0 mi Calm Calm - N/A Rain Rain
5:35 AM 42.8 °F - 39.2 °F 87% 29.90 in 4.0 mi Calm Calm - N/A   Overcast
5:55 AM 42.8 °F - 39.2 °F 87% 29.89 in 7.0 mi Calm Calm - N/A   Overcast
6:15 AM 42.8 °F - 39.2 °F 87% 29.88 in 1.2 mi Calm Calm - N/A   Overcast
6:35 AM 42.8 °F - 39.2 °F 87% 29.87 in 1.0 mi Calm Calm - N/A Rain Light Rain
6:55 AM 42.8 °F - 39.2 °F 87% 29.87 in 0.5 mi Calm Calm - N/A Fog Fog
7:15 AM 42.8 °F 41.1 °F 41.0 °F 93% 29.89 in 0.8 mi WNW 3.5 mph - N/A Rain Light Rain
7:35 AM 42.8 °F 40.1 °F 41.0 °F 93% 29.90 in 3.0 mi WNW 4.6 mph - N/A Rain Light Rain
7:55 AM 42.8 °F 40.1 °F 39.2 °F 87% 29.90 in 4.0 mi WNW 4.6 mph - N/A   Overcast
8:15 AM 42.8 °F 40.1 °F 39.2 °F 87% 29.90 in 4.0 mi WNW 4.6 mph - N/A   Overcast
8:35 AM 41.0 °F 39.0 °F 39.2 °F 93% 29.92 in 4.0 mi NW 3.5 mph - N/A   Overcast
8:55 AM 42.8 °F 41.1 °F 39.2 °F 87% 29.93 in 2.5 mi WNW 3.5 mph - N/A   Overcast
9:15 AM 42.8 °F 40.1 °F 41.0 °F 93% 29.92 in 1.8 mi WNW 4.6 mph - N/A   Light Drizzle
9:35 AM 42.8 °F 38.6 °F 41.0 °F 93% 29.93 in 3.0 mi WNW 6.9 mph - N/A   Overcast
9:55 AM 42.8 °F 40.1 °F 41.0 °F 93% 29.94 in 7.0 mi WNW 4.6 mph - N/A   Overcast
10:15 AM 44.6 °F 41.4 °F 42.8 °F 93% 29.94 in 7.0 mi WNW 5.8 mph - N/A   Overcast
10:35 AM 44.6 °F 41.4 °F 42.8 °F 93% 29.95 in 10.0 mi WNW 5.8 mph - N/A   Overcast
10:55 AM 44.6 °F 40.7 °F 41.0 °F 87% 29.95 in 10.0 mi WNW 6.9 mph - N/A   Overcast
11:15 AM 44.6 °F 39.2 °F 42.8 °F 93% 29.96 in 10.0 mi WNW 10.4 mph - N/A   Overcast
11:35 AM 44.6 °F 39.7 °F 42.8 °F 93% 29.96 in 10.0 mi NW 9.2 mph 17.3 mph N/A   Overcast
11:55 AM 44.6 °F 40.7 °F 42.8 °F 93% 29.96 in 10.0 mi NW 6.9 mph - N/A   Overcast
12:15 PM 46.4 °F 42.9 °F 44.6 °F 93% 29.94 in 10.0 mi NW 6.9 mph 21.9 mph N/A   Overcast
12:35 PM 46.4 °F 43.5 °F 41.0 °F 81% 29.94 in 10.0 mi NW 5.8 mph - N/A   Overcast
12:55 PM 46.4 °F 42.4 °F 41.0 °F 81% 29.95 in 10.0 mi WNW 8.1 mph - N/A   Overcast
1:15 PM 46.4 °F 41.9 °F 41.0 °F 81% 29.94 in 10.0 mi WNW 9.2 mph - N/A   Overcast
1:35 PM 46.4 °F 42.4 °F 41.0 °F 81% 29.95 in 10.0 mi WNW 8.1 mph - N/A   Overcast
1:55 PM 46.4 °F 41.9 °F 39.2 °F 76% 29.94 in 10.0 mi WNW 9.2 mph - N/A   Overcast
2:15 PM 46.4 °F 42.9 °F 39.2 °F 76% 29.94 in 10.0 mi WNW 6.9 mph - N/A   Overcast
2:35 PM 46.4 °F 41.5 °F 41.0 °F 81% 29.94 in 10.0 mi WNW 10.4 mph - N/A   Overcast
2:55 PM 46.4 °F 44.3 °F 41.0 °F 81% 29.94 in 10.0 mi WNW 4.6 mph - N/A   Overcast
3:15 PM 46.4 °F 42.9 °F 39.2 °F 76% 29.94 in 10.0 mi NW 6.9 mph - N/A   Overcast
3:35 PM 46.4 °F 44.3 °F 41.0 °F 81% 29.94 in 10.0 mi NW 4.6 mph - N/A   Overcast
3:55 PM 46.4 °F 42.4 °F 39.2 °F 76% 29.95 in 10.0 mi NW 8.1 mph - N/A   Overcast
4:15 PM 46.4 °F 43.5 °F 39.2 °F 76% 29.96 in 10.0 mi NW 5.8 mph - N/A   Overcast
4:35 PM 46.4 °F 43.5 °F 39.2 °F 76% 29.96 in 10.0 mi WNW 5.8 mph - N/A   Overcast
4:55 PM 46.4 °F 42.9 °F 39.2 °F 76% 29.98 in 10.0 mi NW 6.9 mph - N/A   Overcast
5:15 PM 46.4 °F 44.3 °F 39.2 °F 76% 29.98 in 10.0 mi WNW 4.6 mph - N/A   Overcast
5:35 PM 46.4 °F 45.2 °F 39.2 °F 76% 29.98 in 10.0 mi WNW 3.5 mph - N/A   Overcast
5:55 PM 44.6 °F 43.1 °F 41.0 °F 87% 29.98 in 10.0 mi WNW 3.5 mph - N/A   Overcast
6:15 PM 44.6 °F 43.1 °F 41.0 °F 87% 29.99 in 10.0 mi WNW 3.5 mph - N/A   Overcast
6:35 PM 44.6 °F 42.2 °F 41.0 °F 87% 29.99 in 10.0 mi WNW 4.6 mph - N/A   Overcast
6:55 PM 44.6 °F 42.2 °F 39.2 °F 81% 29.99 in 10.0 mi WNW 4.6 mph - N/A   Mostly Cloudy
7:15 PM 42.8 °F 40.1 °F 39.2 °F 87% 30.00 in 10.0 mi WNW 4.6 mph - N/A   Scattered Clouds
7:35 PM 42.8 °F 40.1 °F 39.2 °F 87% 30.01 in 10.0 mi WNW 4.6 mph - N/A   Scattered Clouds
7:55 PM 41.0 °F 39.0 °F 37.4 °F 87% 30.01 in 10.0 mi WNW 3.5 mph - N/A   Scattered Clouds
8:15 PM 42.8 °F 41.1 °F 37.4 °F 81% 30.02 in 10.0 mi WNW 3.5 mph - N/A   Scattered Clouds
8:35 PM 42.8 °F 41.1 °F 39.2 °F 87% 30.02 in 10.0 mi WNW 3.5 mph - N/A   Scattered Clouds
8:55 PM 42.8 °F 41.1 °F 39.2 °F 87% 30.02 in 7.0 mi WNW 3.5 mph - N/A   Scattered Clouds
9:15 PM 42.8 °F 40.1 °F 39.2 °F 87% 30.03 in 5.0 mi WNW 4.6 mph - N/A   Scattered Clouds
9:35 PM 42.8 °F 40.1 °F 41.0 °F 93% 30.03 in 7.0 mi WNW 4.6 mph - N/A   Mostly Cloudy
9:55 PM 42.8 °F 41.1 °F 41.0 °F 93% 30.03 in 10.0 mi West 3.5 mph - N/A   Scattered Clouds
10:15 PM 41.0 °F 38.0 °F 39.2 °F 93% 30.04 in 4.0 mi WNW 4.6 mph - N/A   Scattered Clouds
10:35 PM 42.8 °F 40.1 °F 41.0 °F 93% 30.04 in 5.0 mi NW 4.6 mph - N/A   Mostly Cloudy
10:55 PM 42.8 °F - 39.2 °F 87% 30.05 in 5.0 mi Calm Calm - N/A   Scattered Clouds
11:15 PM 42.8 °F - 39.2 °F 87% 30.04 in 5.0 mi Calm Calm - N/A   Clear
11:35 PM 41.0 °F - 37.4 °F 87% 30.05 in 2.5 mi Calm Calm - N/A   Clear
11:55 PM 41.0 °F 39.0 °F 39.2 °F 93% 30.05 in 5.0 mi WNW 3.5 mph - N/A   Clear